Regional Weather Roundup
Issued by NWS

Home | Current Version | Previous Version | Graphics & Text | Print | Product List | Glossary On
Versions: 1 2 3 4 5 6 7 8 9 10 11 12 13 14 15 16 17 18 19 20 21 22 23 24 25 26 27 28 29 30 31 32 33 34 35 36 37 38 39 40 41 42 43 44 45 46 47 48 49 50
000
ASUS45 KBOU 312107
RWRCO

WEATHER ROUNDUP FOR COLORADO
NATIONAL WEATHER SERVICE DENVER/BOULDER CO
300 PM MDT SUN AUG 31 2014

NOTE: "FAIR" INDICATES FEW OR NO CLOUDS BELOW 12000 FEET WITH NO
SIGNIFICANT WEATHER AND/OR OBSTRUCTIONS TO VISIBILITY.

COZ001>005-013-030-031-312200-
...NORTHWEST COLORADO...

CITY           SKY/WX    TMP DP  RH WIND       PRES   REMARKS
CRAIG          MOSUNNY   68  45  43 VRB5      30.03F
HAYDEN         MOSUNNY   66  43  42 NW5       30.05F
MEEKER         MOSUNNY   74  41  30 NW12G20   30.02F
MOUNT WERNER   NOT AVBL
STEAMBOAT SPGS MOSUNNY   61  45  56 N6        30.07F
WALDEN         MOSUNNY   59  41  51 W17G24    30.11F
$$

COZ006>008-011-312200-
...WEST CENTRAL VALLEYS...

CITY           SKY/WX    TMP DP  RH WIND       PRES   REMARKS
GRAND JUNCTION SUNNY     87  31  13 W22G32    29.89F
MONTROSE       PTSUNNY   83  36  18 SW14G24   29.97F
EAGLE          MOSUNNY   79  36  21 S26G40    29.98F
RIFLE          MOSUNNY   78  45  30 NW17      29.92S
DELTA          NOT AVBL
NUCLA          PTSUNNY   86  30  13 W18G24    30.01F
$$

COZ017>023-064>068-312200-
...SOUTHWEST COLORADO...

CITY           SKY/WX    TMP DP  RH WIND       PRES   REMARKS
DURANGO        MOSUNNY   80  32  17 W16G28    30.09F
CORTEZ         SUNNY     86  32  14 W15G32    30.05S
PAGOSA SPRINGS PTSUNNY   79  23  13 W23G37    30.16F
TELLURIDE      PTSUNNY   70  30  23 SW10G29   30.25F
WOLF CREEK PAS CLOUDY    52  32  46 SW32G49   30.43F
$$

COZ009-010-012-014-032>034-037-058>063-312200-
...CENTRAL COLORADO...

CITY           SKY/WX    TMP DP  RH WIND       PRES   REMARKS
ASPEN          PTSUNNY   66  43  43 CALM      30.08F
BUENA VISTA    LGT RAIN  62  42  46 W23G40    30.14R
COPPER MTN     PTSUNNY   54  34  47 S14G32    30.36S
BERTHOUD PASS  TSTM      37  36  93 NW21G38   30.38S
COTTONWOOD PAS LGT RAIN  59  36  41 N9G20     30.25R
GUNNISON       PTSUNNY   72  34  25 SW25G38   30.12S
KREMMLING      PTSUNNY   70  37  30 W9G16     30.05F
LEADVILLE      CLOUDY    54  34  46 NW15G22   30.23S
MONARCH PASS   CLOUDY    50  30  46 SW46G62   30.46F
SALIDA         PTSUNNY   75  31  20 SW21G38   30.16R
SUNLIGHT       PTSUNNY   61  41  48 S3        30.27S
WILKERSON PASS NOT AVBL
$$

COZ069>075-312200-
...SAN LUIS VALLEY/SANGRE DE CRISTO MOUNTAINS...

CITY           SKY/WX    TMP DP  RH WIND       PRES   REMARKS
ALAMOSA        SUNNY     81  30  15 W22G31    30.10F
LA VETA PASS   NOT AVBL
SAGUACHE       NOT AVBL
$$

COZ035-036-038>040-312200-
...NORTHERN COLORADO FRONT RANGE...

CITY           SKY/WX    TMP DP  RH WIND       PRES   REMARKS
DENVER INTL AP PTSUNNY   76  49  38 E10G17    29.90F
DMNS CITY PARK   N/A     77  46  32 S7G13     29.89S
AURORA         PTSUNNY   76  49  38 SE10      29.93F
FRONT RANGE AP PTSUNNY   79  48  34 SE10      29.92F
ERIE MUNI ARPT RAIN      64  51  62 N14G20    29.92R
BOULDER MUN AP LGT RAIN  68  52  56 NE9       29.91R
CENTENNIAL     PTSUNNY   76  47  35 SE8G20    29.92F
BROOMFIELD     PTSUNNY   75  46  35 SE9       29.92F
FORT COLLINS   MOSUNNY   70  52  52 N8        29.91F
LONGMONT       MOSUNNY   68  50  53 N6        29.94R
$$

COZ041-046-047-076>085-087-088-312200-
...PIKES PEAK/PALMER DIVIDE AND SOUTHERN FOOTHILLS...

CITY           SKY/WX    TMP DP  RH WIND       PRES   REMARKS
COLO. SPRINGS  PTSUNNY   79  49  34 NE23G31   29.97R
A. F. ACADEMY  PTSUNNY   74  45  35 NW9       29.98F
ELLICOTT       PTSUNNY   76  48  37 NE16G23   29.96R
FALCON         LGT RAIN  73  49  43 NE12G17   30.04R
FORT CARSON    PTSUNNY   77  50  39 N15G23    29.93R
LIMON          MOSUNNY   77  47  34 NE8       29.93S
MONUMENT HILL  PTSUNNY   70  46  43 E7        30.02F
TRINIDAD       SUNNY     89  29  11 SW18G26   29.91F
$$

COZ042>045-048>051-090-091-312200-
...NORTHEAST COLORADO...

CITY           SKY/WX    TMP DP  RH WIND       PRES   REMARKS
GREELEY ARPT   MOSUNNY   72  48  43 N17       29.89F
AKRON          PTSUNNY   72  46  39 N28G36    29.92R
BURLINGTON     MOSUNNY   77  50  38 NE16G24   29.87F
WRAY             N/A     80  48  32 N7        29.85S
STERLING       PTSUNNY   72  52  49 NW12      29.86F
HOLYOKE        LGT RAIN  72  61  68 CALM      29.87R
FORT MORGAN    PTSUNNY   71  45  38 N13G23    29.90F
$$

COZ086-089-092>099-312200-
...SOUTHEAST COLORADO...

CITY           SKY/WX    TMP DP  RH WIND       PRES   REMARKS
PUEBLO         MOSUNNY   93  31  11 NW9G22    29.79F
LA JUNTA       MOSUNNY   99  35  10 W16       29.77F
LAMAR          MOSUNNY   85  54  34 NE20G31   29.74S
SPRINGFIELD      N/A     97  39  13 SW17G25   29.79F
$$


USA.gov is the U.S. government's official web portal to all federal, state and local government web resources and services.